Overview Statistics Trail Chart Weather Telemetry Raw packets
 

This is the latest recevied weather packets stored in our database for station/object N3FWE. If no packets are shown the sender has not sent any weather packets the latest 10 day(s).

<< 3 4 5 6 7 8 9 >>
Time Temp. Humidity Pressure Rain* Wind** Luminosity Snow
1788526202 23.89° C 81% 1015.7 hPa 0 mm - - -
1788525602 23.33° C 82% 1015.8 hPa 0 mm - - -
1788525002 23.33° C 82% 1016 hPa 0 mm - - -
1788524402 22.78° C 84% 1015.8 hPa 0 mm - - -
1788523802 22.78° C 84% 1015.7 hPa 0 mm - - -
1788523203 22.22° C 85% 1015.9 hPa 0 mm - - -
1788522601 21.67° C 87% 1015.9 hPa 0 mm - - -
1788522001 21.11° C 92% 1016.2 hPa 0 mm - - -
1788521402 20.56° C 93% 1016 hPa 0 mm - - -
1788520803 20.56° C 93% 1015.9 hPa 0 mm - - -
1788520202 20° C 92% 1015.8 hPa 0 mm - - -
1788519603 20.56° C 92% 1015.9 hPa 0 mm - - -
1788519002 20.56° C 92% 1015.6 hPa 0 mm - - -
1788518401 20.56° C 91% 1015.5 hPa 0 mm - - -
1788517801 20.56° C 91% 1015.2 hPa 0 mm - - -
1788517201 20.56° C 91% 1015.1 hPa 0 mm - - -
1788516602 20.56° C 91% 1015.1 hPa 0 mm - - -
1788516002 20.56° C 91% 1015.2 hPa 0 mm - - -
1788515402 20.56° C 91% 1015 hPa 0 mm - - -
1788514801 20.56° C 91% 1015 hPa 0 mm - - -
1788514201 21.11° C 91% 1015 hPa 0 mm - - -
1788513601 21.11° C 91% 1015.2 hPa 0 mm - - -
1788513001 21.11° C 91% 1015 hPa 0 mm - - -
1788512403 21.11° C 90% 1015.2 hPa 0 mm - - -
1788511802 21.11° C 90% 1015.4 hPa 0 mm - - -

* Rain latest hour (hover to see other rain measurements)
** Current wind speed in m/s (hover to see current wind gust speed)